Regional Weather Roundup
Issued by NWS Northern Indiana

Home | Current Version | Previous Version | Graphics & Text | Print | Product List | Glossary On
Versions: 1 2 3 4 5 6 7 8 9 10 11 12 13 14 15 16 17 18 19 20 21 22 23 24 25 26 27 28 29 30 31 32 33 34 35 36 37 38 39 40 41 42 43 44 45 46 47 48 49 50
000
ASUS43 KIWX 260700
RWRIWX

KIWX WEATHER ROUNDUP
NATIONAL WEATHER SERVICE NORTHERN INDIANA
300 AM EDT TUE MAY 26 2015

NOTE: "FAIR" INDICATES FEW OR NO CLOUDS BELOW 12,000 FEET WITH NO
SIGNIFICANT WEATHER AND/OR OBSTRUCTIONS TO VISIBILITY.

* THESE STATIONS ARE NOT UNDER NWS QUALITY CONTROL. THEY ALSO MAY NOT
  REPORT WEATHER SUCH AS PRECIPITATION OR FOG.

INZ001>027-260800-
NORTHERN INDIANA

CITY           SKY/WX    TMP DP  RH WIND       PRES   REMARKS
SOUTH BEND     MOCLDY    68  64  87 S7        30.01S
GOSHEN         PTCLDY    66  63  90 S7        30.01S
MONTICELLO*    CLEAR     66  65  97 S6        30.00F
WARSAW*        PTCLDY    66  63  88 S5        30.02F
ANGOLA*        CLEAR     64  63  94 S6        30.03S
FORT WAYNE     PTCLDY    65  62  90 S10       30.04F
PERU/GRISSOM   PTCLDY    65  63  94 S7        30.01F

$$
INZ028>050-260800-
CENTRAL INDIANA

CITY           SKY/WX    TMP DP  RH WIND       PRES   REMARKS
LAFAYETTE      PTCLDY    65  64  97 S7        30.00F
KOKOMO*        PTCLDY    64  63  94 S8        30.03F
MUNCIE*        CLOUDY    68  63  84 SW8       30.06F
INDIANAPOLIS   PTCLDY    65  62  90 SE8       30.03F

$$
MIZ043>046-050>051-056>058-064>065-071>073-077>080-260800-
SOUTHWEST LOWER MICHIGAN

CITY           SKY/WX    TMP DP  RH WIND       PRES   REMARKS
BATTLE CREEK   PTCLDY    67  62  84 S9        30.00F
BENTON HARBOR  PTCLDY    68  63  84 S10       29.97S
COLDWATER*     CLEAR     67  62  84 S5        30.02S
HILLSDALE*     CLEAR     65  64  97 S3        30.04S
HOLLAND        PTCLDY    64  59  83 S6        29.98R
GRAND RAPIDS   PTCLDY    67  61  81 SW8       29.97S
KALAMAZOO      CLEAR     66  62  87 S7        30.00F
STURGIS*       CLEAR     66  64  94 S8        30.01S
THREE RIVERS*  FAIR      66  62  86 S7        30.01F

$$
OHZ001>008-015>018-024>025-260800-
NORTHWEST OHIO

CITY           SKY/WX    TMP DP  RH WIND       PRES   REMARKS
DEFIANCE       CLEAR     66  62  87 S5        30.04F
FINDLAY        MOCLDY    66  62  87 S8        30.06F
TOLEDO EXPRESS CLEAR     67  62  84 SW6       30.05S
TOLEDO METCALF PTCLDY    68  61  78 S6        30.06S
LIMA           MOCLDY    68  63  84 S8        30.07F

$$
AND FOR LAKE MICHIGAN COASTAL AND OPEN LAKE BUOY OBSERVATIONS

STATION/POSITION TEMP    WIND        PRES    VSBY  WAVE
                 AIR SEA DIR/SP/G                  HT/PER
                 (F)     (DEG/KT/KT) (MB)    (MI)  (FT/S)
CALUMET HARBOR    70     180/ 10/ 17   N/A
MICHIGAN CITY     70     170/ 13/ 16   N/A
BURNS HARBOR      69     190/  9/ 14 1014.9F
SAINT JOSEPH      71     160/  5/ 16 1015.6R
SOUTH LAKE BUOY   46 38  190/ 12/ 12 1014.3R         1
4 MI NW BRIDGMAN  62 54  210/ 10/ 12   N/A           1/ 3
MICHIGAN CITY     62 52  200/ 10/ 14   N/A           1/ 2

$$
&&



USA.gov is the U.S. government's official web portal to all federal, state and local government web resources and services.